{"data":{"norad_id":60027,"intl_designator":"2024-111M","name":"STARLINK-32012","alt_names":[],"object_type":"PAYLOAD","status":"ACTIVE","operator":null,"country":"US","launch_date":"2024-06-08","launch_site_code":"AFETR","launch_vehicle":null,"mission":null,"orbit_class":"UNKNOWN","rcs_meters":null,"size_class":null,"mass_kg":null,"dimensions":null,"purposes":["comms"],"wikipedia_slug":null,"has_3d_model":false,"image_url":null,"decayed_at":null,"tle_current":{"epoch":"2026-05-25T02:17:12.329376Z","epoch_age_seconds":77204,"freshness":"FRESH","line1":"1 60027U 24111M   26145.09528159  .00000303  00000+0  22347-4 0  9998","line2":"2 60027  53.1603  80.5733 0001298  82.4529 277.6619 15.30194347110738","mean_motion":15.30194347,"eccentricity":0.0001298,"inclination_deg":53.1603,"raan_deg":80.5733,"arg_perigee_deg":82.4529,"mean_anomaly_deg":277.6619,"bstar":2.2347e-5,"rev_number":11073,"period_min":94.105693360008,"perigee_km":474.34238102084,"apogee_km":476.12151559982,"semimajor_km":6853.3689483103,"source":"CELESTRAK","updated_at":"2026-05-25T13:38:19.132956Z"}}}